Date String (YYYY-MM-DD hh:mm:ss) UTC,Instrument flags,absolute air pressure of the measurement (hPa),sample flow rate (lpm),inlet stack bypass flow (lpm),air temperature of the measurement (°C),ambient temperature measured by the external sensor (°C),aerosol sample conditioner tube jacket temperature (°C),OPC LED temperature (°C),internal box temperature (°C),relative humidity of the measurement (%),span deviation,mass concentration of particles derived from Lorenz-Mie calculation of OPC scattering (μg/m³),mass concentration of particles derived from Lorenz-Mie calculation of OPC scattering (μg/m³),mass concentration of particles derived from Lorenz-Mie calculation of OPC scattering (μg/m³)
DateTimeUTC,F1_M11,P_M11,Q1_M11,Q2_M11,T1_M11,T2_M11,T3_M11,T4_M11,T5_M11,U1_M11,ZSPAN_M11,X2_M11,X0_M11,X1_M11
2023-06-01 00:00:00,SystemResetWarning,0825.1,4.99,000.00,029.2,027.6,000.0,037.5,030.8,21.3,0000.0,0002.82,0004.80,0001.94
2023-06-01 00:01:00,SystemResetWarning,0825.0,5.00,000.00,029.2,027.7,000.0,037.6,030.9,21.4,0000.0,0002.81,0004.75,0001.95
2023-06-01 00:02:00,SystemResetWarning,0825.1,5.00,000.00,029.2,027.7,000.0,037.6,030.9,21.9,0000.0,0002.85,0004.85,0001.96
2023-06-01 00:03:00,SystemResetWarning,0825.0,5.00,000.00,029.2,027.8,000.0,037.6,030.9,22.0,0000.0,0002.88,0004.88,0001.94
2023-06-01 00:04:00,SystemResetWarning,0825.0,4.99,000.00,029.3,027.8,000.0,037.6,030.9,21.4,0000.0,0002.87,0004.87,0001.94
2023-06-01 00:05:00,SystemResetWarning,0825.0,5.00,000.00,029.3,027.8,000.0,037.6,030.9,21.6,0000.0,0002.85,0004.82,0001.95
2023-06-01 00:06:00,SystemResetWarning,0825.0,5.01,000.00,029.3,027.8,000.0,037.6,030.9,21.7,0000.0,0002.90,0004.95,0001.96
2023-06-01 00:07:00,SystemResetWarning,0825.0,5.00,000.00,029.3,027.9,000.0,037.6,030.9,22.0,0000.0,0002.88,0005.01,0001.95
2023-06-01 00:08:00,SystemResetWarning,0825.0,5.01,000.00,029.3,027.9,000.0,037.6,030.9,21.9,0000.0,0002.94,0005.16,0001.96
2023-06-01 00:09:00,SystemResetWarning,0824.9,5.01,000.00,029.3,027.9,000.0,037.6,030.9,21.9,0000.0,0002.87,0004.91,0001.95
2023-06-01 00:10:00,SystemResetWarning,0824.9,4.99,000.00,029.3,027.9,000.0,037.6,031.0,21.7,0000.0,0002.81,0004.68,0001.95
2023-06-01 00:11:00,SystemResetWarning,0824.9,4.99,000.00,029.3,028.0,000.0,037.6,031.0,21.7,0000.0,0002.82,0004.72,0001.95
2023-06-01 00:12:00,SystemResetWarning,0824.9,4.99,000.00,029.3,028.0,000.0,037.7,031.0,22.0,0000.0,0002.78,0004.62,0001.94
2023-06-01 00:13:00,SystemResetWarning,0824.9,5.01,000.00,029.3,028.0,000.0,037.7,031.0,21.4,0000.0,0002.78,0004.57,0001.95
2023-06-01 00:14:00,SystemResetWarning,0824.9,5.01,000.00,029.4,028.0,000.0,037.7,031.0,21.6,0000.0,0002.82,0004.74,0001.97
2023-06-01 00:15:00,SystemResetWarning,0824.9,5.00,000.00,029.4,028.0,000.0,037.7,031.0,21.2,0000.0,0002.87,0004.86,0001.98
2023-06-01 00:16:00,SystemResetWarning,0824.9,5.00,000.00,029.4,028.0,000.0,037.7,031.0,21.3,0000.0,0002.89,0004.90,0002.00
2023-06-01 00:17:00,SystemResetWarning,0824.9,5.00,000.00,029.4,028.0,000.0,037.7,031.0,21.5,0000.0,0002.91,0005.46,0002.02
2023-06-01 00:18:00,SystemResetWarning,0824.9,5.00,000.00,029.4,028.0,000.0,037.7,031.0,21.4,0000.0,0002.89,0005.52,0002.03
2023-06-01 00:19:00,SystemResetWarning,0824.9,4.99,000.00,029.4,028.0,000.0,037.7,031.0,21.4,0000.0,0002.88,0005.61,0002.04
2023-06-01 00:20:00,SystemResetWarning,0824.9,5.00,000.00,029.4,028.0,000.0,037.7,031.0,21.5,0000.0,0002.91,0007.21,0002.05
2023-06-01 00:21:00,SystemResetWarning,0824.9,5.00,000.00,029.4,028.1,000.0,037.8,031.0,21.4,0000.0,0003.02,0007.64,0002.08
2023-06-01 00:22:00,SystemResetWarning,0824.9,5.00,000.00,029.4,028.1,000.0,037.8,031.1,21.5,0000.0,0003.05,0007.65,0002.09
2023-06-01 00:23:00,SystemResetWarning,0824.9,5.00,000.00,029.4,028.1,000.0,037.8,031.1,21.4,0000.0,0003.13,0007.73,0002.12
2023-06-01 00:24:00,SystemResetWarning,0824.9,5.00,000.00,029.4,028.1,000.0,037.8,031.1,21.2,0000.0,0003.14,0007.78,0002.13
2023-06-01 00:25:00,SystemResetWarning,0824.9,5.00,000.00,029.5,028.1,000.0,037.8,031.1,21.4,0000.0,0003.14,0007.78,0002.15
2023-06-01 00:26:00,SystemResetWarning,0824.9,5.00,000.00,029.5,028.1,000.0,037.8,031.1,21.5,0000.0,0003.11,0007.74,0002.14
2023-06-01 00:27:00,SystemResetWarning,0824.8,4.99,000.00,029.5,028.1,000.0,037.8,031.1,21.6,0000.0,0003.11,0007.75,0002.14
2023-06-01 00:28:00,SystemResetWarning,0824.8,5.00,000.00,029.5,028.1,000.0,037.8,031.1,21.9,0000.0,0003.10,0007.51,0002.12
2023-06-01 00:29:00,SystemResetWarning,0824.8,5.00,000.00,029.5,028.2,000.0,037.8,031.2,21.6,0000.0,0003.11,0007.41,0002.11
2023-06-01 00:30:00,SystemResetWarning,0824.8,5.00,000.00,029.5,028.2,000.0,037.9,031.2,21.3,0000.0,0003.05,0007.37,0002.10
2023-06-01 00:31:00,SystemResetWarning,0824.8,5.00,000.00,029.5,028.2,000.0,037.9,031.2,21.1,0000.0,0003.05,0006.62,0002.11
2023-06-01 00:32:00,SystemResetWarning,0824.7,5.00,000.00,029.5,028.2,000.0,037.9,031.2,21.0,0000.0,0003.03,0006.42,0002.10
2023-06-01 00:33:00,SystemResetWarning,0824.7,5.00,000.00,029.6,028.2,000.0,037.9,031.2,21.3,0000.0,0003.09,0006.69,0002.10
2023-06-01 00:34:00,SystemResetWarning,0824.7,5.00,000.00,029.6,028.2,000.0,037.9,031.2,21.2,0000.0,0003.11,0007.51,0002.11
2023-06-01 00:35:00,SystemResetWarning,0824.7,5.00,000.00,029.6,028.2,000.0,037.9,031.2,20.8,0000.0,0003.15,0007.64,0002.11
2023-06-01 00:36:00,SystemResetWarning,0824.7,5.00,000.00,029.6,028.2,000.0,037.9,031.2,21.0,0000.0,0003.16,0007.62,0002.11
2023-06-01 00:37:00,SystemResetWarning,0824.7,5.00,000.00,029.6,028.2,000.0,037.9,031.2,21.0,0000.0,0003.18,0007.68,0002.12
2023-06-01 00:38:00,SystemResetWarning,0824.7,5.00,000.00,029.6,028.2,000.0,037.9,031.2,20.8,0000.0,0003.22,0007.81,0002.13
2023-06-01 00:39:00,SystemResetWarning,0824.7,5.00,000.00,029.6,028.2,000.0,038.0,031.3,21.0,0000.0,0003.26,0007.91,0002.14
2023-06-01 00:40:00,SystemResetWarning,0824.7,5.00,000.00,029.6,028.3,000.0,038.0,031.3,21.0,0000.0,0003.24,0007.99,0002.14
2023-06-01 00:41:00,SystemResetWarning,0824.7,4.99,000.00,029.6,028.3,000.0,038.0,031.3,21.1,0000.0,0003.28,0008.22,0002.16
2023-06-01 00:42:00,SystemResetWarning,0824.7,4.98,000.00,029.7,027.6,000.0,038.0,031.2,21.4,0000.0,0003.31,0008.03,0002.16
2023-06-01 00:43:00,SystemResetWarning,0824.7,5.01,000.00,029.6,025.8,000.0,037.9,031.0,21.3,0000.0,0003.32,0008.46,0002.18
2023-06-01 00:44:00,SystemResetWarning,0824.7,5.00,000.00,029.5,025.3,000.0,037.8,030.8,21.3,0000.0,0003.28,0008.34,0002.17
2023-06-01 00:45:00,SystemResetWarning,0824.7,5.01,000.00,029.4,025.4,000.0,037.8,030.7,20.9,0000.0,0003.24,0007.91,0002.15
2023-06-01 00:46:00,SystemResetWarning,0824.7,5.01,000.00,029.3,025.7,000.0,037.8,030.7,20.8,0000.0,0003.23,0008.11,0002.15
2023-06-01 00:47:00,SystemResetWarning,0824.7,5.00,000.00,029.3,026.0,000.0,037.7,030.7,20.4,0000.0,0003.24,0008.10,0002.17
2023-06-01 00:48:00,SystemResetWarning,0824.7,5.00,000.00,029.3,026.4,000.0,037.7,030.7,20.2,0000.0,0003.27,0008.15,0002.18
2023-06-01 00:49:00,SystemResetWarning,0824.7,5.00,000.00,029.3,026.6,000.0,037.7,030.8,20.3,0000.0,0003.26,0008.11,0002.19
2023-06-01 00:50:00,SystemResetWarning,0824.7,4.99,000.00,029.3,026.9,000.0,037.7,030.8,20.6,0000.0,0003.24,0008.02,0002.18
2023-06-01 00:51:00,SystemResetWarning,0824.7,5.00,000.00,029.3,027.1,000.0,037.7,030.8,21.1,0000.0,0003.28,0008.10,0002.18
2023-06-01 00:52:00,SystemResetWarning,0824.7,5.00,000.00,029.3,027.3,000.0,037.7,030.9,20.9,0000.0,0003.30,0008.19,0002.19
2023-06-01 00:53:00,SystemResetWarning,0824.7,5.00,000.00,029.3,027.4,000.0,037.7,030.9,21.3,0000.0,0003.27,0008.31,0002.18
2023-06-01 00:54:00,SystemResetWarning,0824.7,5.00,000.00,029.3,027.5,000.0,037.7,030.9,21.5,0000.0,0003.27,0007.86,0002.18
2023-06-01 00:55:00,SystemResetWarning,0824.7,5.00,000.00,029.3,027.6,000.0,037.7,030.9,20.9,0000.0,0003.27,0007.83,0002.18
2023-06-01 00:56:00,SystemResetWarning,0824.7,4.99,000.00,029.3,027.7,000.0,037.7,031.0,20.6,0000.0,0003.29,0007.77,0002.19
2023-06-01 00:57:00,SystemResetWarning,0824.7,4.99,000.00,029.4,027.8,000.0,037.7,031.0,20.5,0000.0,0003.28,0007.45,0002.18
2023-06-01 00:58:00,SystemResetWarning,0824.7,5.00,000.00,029.4,027.9,000.0,037.7,031.0,20.5,0000.0,0003.26,0007.45,0002.16
2023-06-01 00:59:00,SystemResetWarning,0824.7,5.00,000.00,029.4,027.9,000.0,037.7,031.0,20.1,0000.0,0003.20,0007.25,0002.13
